Wind_Speed
30 26 23 21 20 20 21 26 27 27 26 24 22 22 20 19 17 17 7 10 5 2 3 5 5 2 4 2 3 4 4 3 2 1 4 4 3 6 3 2 1 3 2 3 3 1 5 6 4 6 5 3 5 5
30 27 25 23 21 22 22 23 27 29 28 26 23 23 22 20 19 19 6 12 9 2 2 5 8 11 12 12 2 4 3 2 5 3 2 3 2 1 6 2 2 4 5 2 5 5 2 3 2 3 5 6 6 7
29 27 25 23 22 22 24 24 25 29 29 28 26 24 23 22 20 20 7 14 7 2 3 1 6 4 11 17 13 3 3 3 3 1 4 1 1 3 4 5 1 5 4 4 4 3 3 4 4 4 2 4 5 5
29 26 25 24 24 25 26 26 27 30 29 30 27 25 24 24 21 21 11 14 7 4 2 5 1 6 5 12 17 19 12 8 4 3 1 3 1 1 3 1 4 5 5 5 0 0 3 2 3 6 7 9 10 10
27 26 25 26 27 28 28 28 30 31 30 30 29 26 25 24 22 20 12 8 9 1 3 3 9 7 7 9 14 19 15 3 2 3 3 1 1 2 1 1 1 2 5 4 4 4 4 2 5 4 7 6 9 13
29 28 26 25 24 27 28 31 32 33 32 30 31 28 27 25 23 12 1 12 16 7 2 2 3 4 4 3 8 9 8 3 2 3 1 3 3 2 2 1 2 3 1 2 4 4 4 8 6 6 6 6 11 12
26 26 26 24 24 26 27 30 33 34 34 33 31 29 28 28 26 4 3 3 19 9 3 3 4 3 3 2 2 2 5 2 1 3 2 0 0 2 2 2 2 1 4 7 6 7 7 5 4 9 15 17 18 19
22 26 27 25 23 25 25 29 34 36 36 34 32 29 28 27 18 5 2 12 23 7 2 2 3 4 3 2 2 1 2 0 4 1 1 1 2 2 1 3 2 3 5 8 9 8 6 13 13 12 14 18 12 9
21 24 24 23 27 26 27 31 38 39 38 35 31 28 22 13 6 9 8 19 14 3 4 2 3 3 2 1 2 3 2 3 0 2 2 2 2 3 3 4 6 5 3 6 9 11 9 11 10 9 9 8 11 7
18 20 22 27 27 29 35 37 40 41 40 39 32 6 1 8 22 21 6 1 1 2 1 3 1 1 2 3 3 2 2 2 1 3 1 2 2 0 2 2 4 5 8 6 8 5 5 4 7 7 5 8 12 14
20 18 23 27 30 37 40 42 44 47 47 11 4 2 8 32 6 3 3 3 1 2 3 3 4 3 1 3 2 2 1 2 1 3 4 1 2 4 4 6 7 8 10 8 5 4 5 9 10 8 7 12 17 20
22 20 19 33 35 36 45 46 51 29 16 15 17 13 8 3 2 4 4 3 5 6 4 5 5 4 3 3 2 2 3 1 4 1 2 2 2 7 8 7 7 8 10 8 8 5 11 16 16 16 16 17 19 20
27 23 24 37 34 44 46 52 41 37 38 18 4 4 4 3 4 8 7 4 4 4 4 4 3 4 3 2 2 3 3 2 1 1 3 3 5 7 8 7 8 9 9 11 11 9 12 16 16 18 19 18 19 19
28 31 31 30 38 38 47 46 40 39 12 3 4 7 5 4 5 5 4 5 4 5 8 4 2 3 2 3 2 4 1 3 1 1 5 3 8 8 7 5 6 6 10 12 11 13 14 16 16 14 15 17 18 19
34 35 37 32 38 41 42 45 37 27 5 3 3 4 5 3 3 3 4 4 3 8 9 4 4 3 2 4 1 4 3 4 5 3 1 5 9 10 8 7 7 8 9 10 12 13 15 15 15 14 11 10 11 15
33 40 30 37 36 42 46 39 23 6 4 2 1 2 2 3 2 2 3 3 1 4 3 3 4 3 2 5 3 5 7 5 2 3 4 9 9 8 8 8 11 12 12 13 13 14 13 12 11 12 12 10 11 12
21 11 45 43 49 44 33 15 6 4 3 4 2 1 1 1 2 2 4 3 4 1 3 4 4 3 4 3 4 1 3 2 5 6 6 9 8 9 12 14 13 14 12 12 13 12 12 12 14 12 9 7 8 9
42 52 53 51 41 28 11 6 4 3 3 1 2 0 3 2 2 3 2 1 3 2 2 2 3 3 4 5 4 3 3 5 7 7 7 7 14 14 14 14 15 15 14 14 13 11 10 10 7 6 7 8 8 8
34 41 42 33 17 7 3 3 3 3 4 2 1 2 3 3 4 2 4 6 8 6 3 2 3 2 2 1 6 7 7 7 8 6 6 13 15 16 15 17 17 16 16 14 11 9 8 7 6 8 10 12 10 10
26 24 22 16 11 5 4 2 4 4 3 2 2 3 3 2 2 4 8 6 4 3 4 3 2 1 1 5 7 8 9 10 10 9 7 6 14 17 16 18 17 15 12 8 7 7 7 6 6 8 9 11 11 12
24 17 10 14 5 8 4 2 3 3 3 3 1 3 3 3 4 5 4 3 3 2 2 3 3 6 14 17 17 19 16 14 6 6 9 5 11 16 16 14 12 10 8 7 6 5 5 4 4 7 10 10 10 10
7 13 5 9 6 4 4 6 3 4 3 3 2 3 3 2 1 3 1 5 3 3 2 2 5 8 10 10 13 17 19 22 21 19 21 18 6 9 10 9 8 8 6 4 2 2 2 1 3 4 6 7 9 9
8 6 7 8 6 5 2 4 3 3 4 2 2 3 2 2 2 1 3 3 2 4 6 7 12 19 19 20 24 21 23 25 16 15 18 20 19 16 13 12 11 8 5 6 6 6 3 2 3 2 1 3 5 7
9 6 5 3 4 3 0 3 2 2 3 3 3 3 2 2 1 3 4 2 2 3 7 11 17 8 15 14 9 12 14 24 21 19 17 16 12 12 12 11 10 9 7 7 9 7 5 2 5 4 2 1 4 6
7 6 4 4 3 4 4 3 4 4 4 3 3 3 2 2 3 3 2 2 2 1 3 10 12 11 7 4 9 14 16 21 19 13 10 13 18 12 10 9 10 10 9 10 11 13 12 10 8 3 1 2 2 2
7 4 4 1 2 4 2 3 2 3 3 3 3 2 2 3 4 3 3 3 2 3 3 7 9 6 5 10 9 13 14 16 20 16 10 8 10 13 10 7 5 6 8 9 10 11 11 10 9 8 8 6 3 3
5 3 3 2 1 3 4 4 3 5 4 3 2 2 3 4 2 2 1 2 3 6 15 21 22 18 14 16 17 16 14 12 12 16 15 13 12 9 9 11 8 4 4 2 6 7 8 9 10 8 7 7 8 7
2 4 4 5 5 3 4 4 3 2 2 2 3 3 5 6 3 2 2 7 21 21 20 20 24 26 24 19 18 19 21 22 22 19 17 14 10 10 10 9 7 6 5 5 5 5 4 4 4 6 7 8 8 7
3 2 4 6 5 6 6 3 1 1 1 2 4 3 3 2 3 2 9 23 26 28 23 23 22 23 21 19 18 19 22 20 15 4 3 3 7 7 5 6 5 5 5 6 5 4 4 4 4 5 5 7 7 7
4 3 4 3 4 4 3 3 2 2 2 2 3 3 3 4 12 14 21 24 25 23 24 26 24 23 21 20 16 11 8 5 2 3 5 5 9 10 5 3 3 3 3 4 4 4 4 4 4 5 5 5 7 9
2 3 4 4 4 3 2 4 4 6 4 5 6 5 4 3 8 15 15 18 24 25 23 18 14 12 12 11 9 9 5 5 5 4 6 11 8 6 4 3 2 1 2 1 2 3 3 3 3 3 4 5 7 7
4 3 4 4 2 3 3 4 3 4 5 4 5 4 4 4 3 5 4 7 15 15 14 15 14 9 8 7 7 7 9 10 8 7 7 6 5 4 3 2 2 2 2 2 2 2 2 1 2 1 2 3 5 5
4 3 4 3 4 4 4 4 5 3 4 3 4 1 0 2 3 2 3 5 9 11 13 11 11 11 10 10 9 8 7 7 6 4 4 4 3 3 4 4 4 4 5 4 3 1 1 1 1 2 3 4 5 5
Wind_Direction
207 209 212 217 218 216 213 211 211 209 207 207 205 203 202 200 193 185 198 198 178 182 205 176 168 137 345 8 179 286 59 334 77 146 137 240 136 170 192 217 242 258 120 145 75 100 276 157 75 149 201 49 129 123
206 209 211 217 223 218 218 215 212 212 209 206 205 204 202 199 192 182 181 192 214 128 235 228 236 259 227 209 157 306 254 212 192 112 110 232 118 165 142 263 66 250 167 223 192 214 227 185 134 138 145 143 160 141
206 210 214 220 223 221 217 216 214 214 211 206 204 201 199 194 190 184 165 174 170 99 287 7 237 241 224 219 216 174 293 310 308 94 163 255 197 132 130 204 152 282 163 205 110 218 164 139 88 97 110 112 123 116
207 213 216 220 226 230 227 221 217 215 212 208 203 199 197 192 189 186 183 184 181 117 147 275 254 260 248 214 209 216 249 312 339 294 82 116 239 23 230 272 148 199 140 172 341 18 109 89 115 136 100 100 97 85
208 212 224 233 237 231 225 221 217 214 213 207 200 197 196 192 189 188 192 203 195 128 188 275 304 261 252 261 221 221 209 181 210 268 77 162 254 136 284 70 214 218 178 166 210 182 135 137 133 95 112 125 122 120
210 217 231 228 229 223 218 215 210 206 207 198 196 193 192 185 176 169 212 234 228 235 78 333 298 270 293 18 86 124 148 171 204 161 27 88 237 125 104 176 265 307 315 225 151 103 84 102 90 68 97 98 104 110
218 221 224 230 228 220 213 208 201 198 195 189 190 188 184 176 169 173 183 208 179 147 82 330 310 300 319 358 8 82 91 175 218 130 101 31 30 82 88 187 262 29 90 84 92 121 65 36 101 85 102 96 99 96
214 223 227 224 220 209 206 200 195 189 185 179 179 180 176 173 175 156 115 156 171 96 79 202 265 319 24 12 337 4 108 141 19 120 6 108 336 81 227 227 143 104 91 50 38 43 99 108 94 89 101 109 93 100
218 216 212 213 205 204 191 185 183 176 173 170 168 160 158 184 191 156 141 164 170 182 170 184 180 230 358 26 0 349 249 78 11 82 202 179 158 197 196 178 184 175 95 122 79 76 75 98 113 110 112 96 115 124
210 202 207 198 197 182 180 174 170 166 162 156 144 148 156 161 130 122 114 115 346 308 133 193 180 196 82 40 345 3 355 76 114 246 350 75 207 29 5 52 113 81 104 104 95 87 95 98 118 129 134 135 143 138
196 197 182 181 178 174 170 167 165 159 149 141 123 107 137 137 110 58 196 149 166 248 219 175 176 145 191 118 209 306 86 57 111 242 161 172 257 181 117 82 66 68 77 66 82 85 140 146 147 138 127 124 135 141
185 183 170 173 172 170 168 165 162 147 145 130 108 109 109 91 85 171 163 167 205 211 174 157 171 163 142 138 150 327 111 113 193 176 105 225 252 121 119 103 89 80 86 88 86 85 141 142 146 139 137 139 149 154
182 180 178 167 169 168 166 163 154 134 124 116 95 109 142 189 159 175 181 195 200 170 166 178 132 129 93 111 74 101 112 182 24 38 235 210 137 128 126 117 91 94 101 92 73 83 117 121 137 147 141 148 150 154
182 178 177 170 163 158 157 149 145 139 129 77 136 164 186 174 217 204 182 150 193 157 155 130 76 102 164 66 140 110 124 131 81 237 229 171 143 125 120 108 118 103 83 78 82 83 85 89 92 115 135 152 156 157
171 168 168 167 160 163 152 151 148 150 93 103 128 190 184 203 233 180 210 114 196 155 140 109 78 106 96 119 127 120 132 215 211 226 147 127 126 128 123 124 110 96 97 95 94 91 93 102 108 116 131 144 151 153
159 161 160 167 161 151 148 147 144 80 52 102 212 121 157 173 222 169 158 143 118 151 103 79 110 102 129 127 157 202 165 215 181 119 111 117 112 111 119 120 110 110 103 101 101 105 109 118 125 124 123 125 140 161
138 135 150 153 143 136 134 114 74 67 139 161 214 278 163 327 123 154 138 137 124 82 106 117 111 142 122 147 177 217 181 113 120 100 100 113 123 126 126 126 123 121 115 114 112 115 115 124 130 130 124 140 163 171
104 116 127 132 129 114 96 61 104 105 108 88 134 6 82 17 57 44 73 38 101 94 59 97 117 137 154 153 174 153 100 94 90 99 108 112 115 121 130 133 134 133 133 134 132 129 132 135 143 156 158 164 164 178
115 121 121 122 119 102 96 63 42 89 58 29 23 25 58 47 14 41 74 73 80 69 87 39 76 103 122 87 125 122 121 116 112 105 100 108 118 118 120 131 133 126 120 118 122 135 150 160 161 172 176 172 179 187
118 124 133 132 96 86 76 50 61 67 53 2 29 38 61 34 345 39 49 40 45 48 51 37 21 41 99 114 117 116 115 120 121 111 100 83 110 110 104 109 113 120 119 122 133 148 151 164 187 189 190 194 196 200
100 110 113 122 106 79 90 88 67 80 86 59 34 32 59 13 22 28 38 1 61 42 78 33 80 91 91 98 111 114 110 118 113 120 131 119 112 110 105 107 114 121 130 144 156 162 179 204 219 217 217 224 233 237
83 117 73 46 73 66 75 29 117 151 102 133 97 77 86 62 40 32 21 37 56 15 24 78 90 100 95 90 99 107 114 107 107 107 112 116 103 106 103 107 110 90 72 57 8 302 270 217 215 226 240 249 247 248
97 80 49 41 71 62 335 354 80 25 99 103 89 78 41 57 30 14 68 44 51 26 53 67 73 89 91 94 99 98 114 113 99 104 105 101 100 95 89 77 70 71 57 21 342 314 323 224 213 239 330 284 276 261
52 55 44 57 72 122 148 34 56 80 76 68 61 77 61 63 21 64 69 50 355 20 93 100 105 93 79 80 80 85 101 114 106 106 116 109 101 89 93 92 81 68 61 47 36 36 23 340 194 210 224 320 290 284
74 353 67 36 24 76 73 38 22 56 73 62 76 41 15 25 71 68 92 131 108 57 71 86 82 102 108 93 87 98 121 124 117 107 106 115 120 121 116 103 82 65 64 64 54 52 52 52 59 65 303 297 332 339
73 322 73 118 356 91 119 91 85 105 88 64 65 68 45 76 76 125 158 150 146 149 145 130 124 106 75 112 117 113 119 126 122 105 113 125 140 142 145 138 126 54 38 52 53 53 50 47 45 34 30 25 12 350
68 1 46 24 51 87 93 69 61 81 81 109 135 69 69 74 135 162 142 159 131 150 155 146 137 126 125 120 119 125 130 133 126 120 115 109 105 112 123 116 99 70 35 68 53 44 39 33 35 33 34 30 23 15
72 32 68 339 49 38 96 62 72 99 123 118 83 70 124 156 149 145 123 126 133 140 136 137 137 134 130 128 130 129 124 124 121 119 112 96 89 83 86 91 82 67 60 55 56 48 36 20 13 32 33 31 21 4
44 14 74 32 38 48 43 57 108 66 354 109 115 119 113 66 21 78 116 133 138 131 116 116 119 125 121 122 128 134 138 141 138 122 125 151 161 125 104 94 78 59 58 51 52 50 52 52 52 49 47 48 40 33
3 26 81 51 57 51 15 358 357 312 350 72 109 106 78 63 31 105 131 135 131 129 136 139 139 137 131 129 124 124 138 155 161 179 167 189 181 144 142 135 123 59 59 40 43 45 57 64 69 62 55 45 47 51
11 51 65 49 74 34 341 309 22 67 35 46 32 79 74 92 67 58 90 126 133 136 136 132 134 141 145 146 150 151 147 142 119 89 136 139 142 145 156 153 147 115 90 57 50 57 58 60 62 61 58 52 47 40
28 55 113 82 68 343 27 48 38 43 14 38 10 25 20 49 53 21 52 144 146 142 151 155 152 143 143 135 132 128 125 131 133 126 141 154 163 167 177 166 152 155 145 130 114 111 121 89 53 51 41 42 21 18
38 38 51 74 29 25 360 68 27 41 26 33 20 13 10 132 144 161 155 178 185 176 166 154 149 143 140 132 129 131 145 155 153 147 151 166 190 194 187 182 206 206 174 151 168 234 294 7 65 61 30 15 11 16
Height
700 706 712 717 722 726 730 735 741 746 752 758 763 769 774 778 783 788 790 793 795 799 798 799 800 802 803 802 800 794 794 793 800 800 809 819 808 804 809 803 803 810 813 818 825 826 815 793 795 803 806 806 809 815
695 701 707 712 717 722 727 731 736 742 749 755 761 767 772 776 781 786 789 792 794 796 797 796 795 795 797 798 807 801 792 786 784 792 803 809 807 805 797 817 801 808 802 807 808 803 793 792 790 794 797 800 807 812
690 696 702 707 712 717 722 727 732 738 745 752 758 764 770 775 779 784 787 789 793 796 796 796 792 791 792 793 796 803 793 787 783 780 793 798 796 794 802 804 801 799 793 799 799 793 792 793 794 795 797 800 806 810
685 691 697 702 706 711 717 722 727 734 741 748 755 761 767 773 777 782 785 787 791 794 802 792 787 788 788 788 788 790 791 790 793 790 795 804 810 797 803 792 791 794 792 796 796 795 796 794 793 796 800 805 811 816
679 685 691 695 699 704 710 716 722 729 737 745 751 758 765 770 776 781 785 787 788 792 796 797 787 783 784 783 780 782 785 791 794 800 796 799 806 806 807 804 797 791 789 796 795 788 791 793 796 799 804 809 811 817
674 680 685 689 693 698 704 710 716 725 734 742 748 756 764 770 776 783 787 786 788 790 792 795 788 782 781 780 776 777 780 788 789 790 798 795 800 800 803 814 793 792 789 786 788 791 795 795 800 802 811 813 816 822
670 674 679 682 687 692 697 704 712 721 731 740 748 755 762 770 775 779 782 780 784 790 795 797 794 780 778 777 778 777 780 787 783 791 803 798 797 794 813 809 790 793 790 788 790 790 797 800 807 810 813 818 822 827
664 669 673 677 681 686 692 699 709 718 729 740 749 756 764 771 777 779 780 780 785 789 792 797 792 786 778 781 784 781 783 785 788 793 796 798 802 803 805 795 794 794 794 793 793 793 797 804 808 816 820 821 828 833
660 664 667 672 677 683 689 697 707 717 730 740 750 759 769 772 772 774 780 783 785 790 792 795 793 787 782 787 785 786 786 787 794 800 799 798 805 799 792 792 794 792 791 798 801 803 807 809 815 817 821 827 831 837
656 659 662 667 673 678 687 697 706 718 730 740 753 759 765 764 770 776 784 788 788 783 786 787 789 790 786 790 791 795 791 798 800 799 799 801 800 797 798 795 796 796 796 800 805 814 818 821 819 822 824 828 832 836
653 657 660 664 671 679 687 697 707 718 728 735 746 756 760 764 769 778 784 783 789 786 781 777 783 786 788 790 797 794 794 799 797 797 793 801 796 796 798 800 801 802 803 805 808 810 813 815 821 826 830 830 835 838
651 655 659 666 672 678 687 697 706 713 720 731 740 751 758 766 774 776 776 780 779 769 771 776 776 779 784 786 789 796 796 801 791 799 802 798 796 795 800 806 807 806 807 811 812 814 815 818 821 825 828 832 836 841
650 656 661 665 672 678 688 698 706 713 722 733 740 752 759 766 763 766 763 763 764 761 764 769 774 774 781 785 796 794 793 795 799 797 790 795 795 800 803 808 810 813 814 813 814 818 819 820 824 828 831 836 840 845
648 655 662 668 675 683 689 696 707 713 722 734 744 752 749 754 753 750 747 750 752 754 758 763 771 773 785 786 792 787 796 796 805 815 788 789 794 800 806 811 814 816 814 816 821 824 824 825 830 835 839 841 844 848
647 656 664 671 677 686 693 703 711 719 726 735 739 742 742 744 744 743 744 741 745 746 748 764 770 773 782 785 788 792 795 790 789 783 786 790 797 803 809 814 816 817 821 824 825 827 829 832 837 841 844 845 847 849
648 659 666 674 682 689 698 706 715 722 732 736 737 735 737 741 739 745 741 740 744 747 750 753 766 771 778 777 783 779 778 775 777 783 791 796 804 809 812 816 818 821 823 826 828 831 834 838 841 843 846 848 850 853
648 651 666 677 686 694 700 707 718 730 735 736 735 735 735 735 732 734 733 739 742 744 751 754 760 767 778 775 776 779 779 782 787 790 796 801 806 811 815 818 821 824 827 830 833 836 839 842 843 845 848 851 853 855
654 661 671 679 688 695 705 714 723 729 732 735 735 736 737 739 738 737 738 738 740 744 746 753 756 761 765 763 774 781 786 790 792 798 802 807 810 814 817 820 823 827 831 834 837 839 842 843 845 847 850 851 853 855
667 673 680 688 692 699 711 719 721 728 735 738 739 738 740 743 743 742 741 742 743 747 754 761 760 763 768 775 777 784 788 791 797 805 808 811 814 817 819 821 825 828 830 833 836 839 841 844 846 848 849 851 853 855
678 684 690 694 696 705 716 723 725 732 740 744 742 744 748 751 750 748 747 749 753 760 765 767 770 773 774 776 780 786 791 796 800 806 814 817 819 820 821 823 826 830 833 837 840 841 843 845 846 847 848 850 851 852
682 687 690 696 700 706 720 728 731 738 744 747 748 748 755 756 757 757 760 762 764 770 773 778 779 780 781 784 788 791 796 799 803 806 812 819 822 823 825 829 832 835 838 840 842 843 843 844 845 846 847 848 849 851
689 691 691 693 703 715 725 730 732 738 745 750 752 754 761 766 766 767 767 768 777 784 782 784 784 783 786 791 796 798 801 804 809 813 817 820 825 828 831 833 835 838 840 841 842 842 843 844 844 844 846 847 848 849
691 693 697 704 717 728 738 732 734 739 745 751 753 757 764 765 767 767 778 786 789 790 789 789 790 791 794 799 801 806 809 811 816 820 823 826 829 832 835 837 838 841 842 842 842 841 841 842 843 845 845 846 846 846
693 704 716 722 724 739 737 738 738 742 746 751 758 765 767 770 770 776 787 793 796 794 793 795 795 799 803 807 811 814 817 817 821 825 827 829 834 837 839 842 843 843 843 843 842 840 840 840 841 843 844 845 845 845
710 732 729 737 734 739 746 751 746 746 757 761 768 773 776 773 785 793 795 796 799 800 799 799 801 804 810 816 818 819 821 821 825 830 833 834 836 841 844 845 845 845 844 844 843 842 842 841 841 842 843 843 844 844
732 740 741 742 743 741 746 760 763 764 766 773 771 775 778 785 797 798 792 796 800 801 802 803 807 812 816 817 820 823 826 828 829 832 837 839 840 841 843 845 846 846 845 845 845 844 844 844 844 843 843 843 843 843
741 747 738 739 738 738 750 754 754 763 780 785 780 791 795 812 810 792 795 795 798 801 803 805 807 811 817 821 824 827 830 832 834 836 839 841 842 843 845 845 846 847 847 846 846 846 846 846 845 845 844 844 843 843
743 742 754 754 749 749 765 770 778 781 772 772 781 803 805 802 793 793 794 796 797 802 807 810 813 816 820 824 827 829 832 835 837 840 842 844 845 846 846 847 847 847 847 847 846 846 846 846 846 845 845 844 844 843
753 751 754 768 765 761 766 776 774 771 773 774 789 789 785 789 794 794 797 798 802 805 811 815 820 822 825 828 830 833 836 838 840 843 845 846 846 848 848 848 848 848 848 848 847 847 847 847 846 846 846 845 845 844
760 755 766 778 773 776 779 777 778 777 774 774 776 781 788 796 800 800 801 802 805 810 814 818 822 825 828 830 834 836 838 839 840 840 842 843 844 846 847 847 848 848 848 849 849 848 848 848 848 848 847 847 847 846
762 765 774 778 778 783 785 784 780 778 778 782 785 790 796 801 806 808 808 810 811 815 818 823 826 829 831 832 834 836 838 839 839 840 841 842 844 845 846 847 847 847 848 849 849 849 849 849 849 849 849 848 848 847
777 786 787 788 785 788 786 791 794 796 798 801 805 803 805 809 816 815 816 816 817 819 822 825 827 829 831 833 834 835 836 838 839 840 841 843 844 845 846 846 846 847 848 848 849 850 850 850 850 850 850 849 849 848
788 789 790 792 793 795 798 801 806 806 812 815 816 822 821 819 820 817 818 818 820 821 823 826 828 830 832 834 835 836 838 839 841 842 843 843 844 844 845 846 846 846 847 848 849 849 850 850 850 850 850 850 849 849